This is the latest recevied weather packets stored in our database for station/object WS2Z. If no packets are shown the sender has not sent any weather packets the latest 10 day(s).
| Time | Temp. | Humidity | Pressure | Rain* | Wind** | Luminosity | Snow |
|---|---|---|---|---|---|---|---|
| 1777845361 | 23.89° C | 82% | 1014.8 hPa | 0 mm | - | 99 W/m² | - |
| 1777845057 | 23.89° C | 81% | 1014.7 hPa | 0 mm | - | 132 W/m² | - |
| 1777844756 | 23.89° C | 82% | 1014.8 hPa | 0 mm | - | 161 W/m² | - |
| 1777844452 | 23.89° C | 82% | 1014.7 hPa | 0 mm | - | 160 W/m² | - |
| 1777844151 | 23.89° C | 82% | 1014.9 hPa | 0 mm | - | 115 W/m² | - |
| 1777843847 | 23.89° C | 82% | 1014.9 hPa | 0 mm | - | 89 W/m² | - |
| 1777843544 | 23.89° C | 82% | 1014.8 hPa | 0 mm | - | 120 W/m² | - |
| 1777843242 | 23.89° C | 82% | 1014.9 hPa | 0 mm | - | 123 W/m² | - |
| 1777842939 | 23.89° C | 81% | 1014.8 hPa | 0 mm | - | 116 W/m² | - |
| 1777842634 | 23.89° C | 82% | 1015 hPa | 0 mm | - | 135 W/m² | - |
| 1777842331 | 23.89° C | 83% | 1015.3 hPa | 0 mm | - | 110 W/m² | - |
| 1777842027 | 23.89° C | 83% | 1015.1 hPa | 0 mm | - | 66 W/m² | - |
| 1777841724 | 23.89° C | 82% | 1015.3 hPa | 0 mm | - | 43 W/m² | - |
| 1777841420 | 23.89° C | 82% | 1015.2 hPa | 0 mm | - | 59 W/m² | - |
| 1777841117 | 24.44° C | 82% | 1015.2 hPa | 0 mm | - | 104 W/m² | - |
| 1777840814 | 24.44° C | 82% | 1015.2 hPa | 0 mm | - | 118 W/m² | - |
| 1777840512 | 24.44° C | 82% | 1015.2 hPa | 0 mm | - | 109 W/m² | - |
| 1777840209 | 24.44° C | 81% | 1015.5 hPa | 0 mm | - | 109 W/m² | - |
| 1777839906 | 24.44° C | 81% | 1015.3 hPa | 0 mm | - | 121 W/m² | - |
| 1777839604 | 24.44° C | 81% | 1015.2 hPa | 0 mm | - | 188 W/m² | - |
| 1777839301 | 24.44° C | 82% | 1015.3 hPa | 0 mm | - | 255 W/m² | - |
| 1777838999 | 24.44° C | 81% | 1015.4 hPa | 0 mm | - | 137 W/m² | - |
| 1777838695 | 24.44° C | 81% | 1015.4 hPa | 0 mm | - | 99 W/m² | - |
| 1777838392 | 25° C | 81% | 1015.4 hPa | 0 mm | - | 276 W/m² | - |
| 1777838089 | 24.44° C | 81% | 1015.4 hPa | 0 mm | - | 363 W/m² | - |
* Rain latest hour (hover to see other rain measurements)
** Current wind speed in m/s (hover to see current wind gust speed)